EW1145 Weather Reports


Display with metric or nautical units.
time (UTC)temp
F
wind
direction
speed
MPH
gust
MPH
rain 1hr
in
rain 24hr
in
rain mn
in
humidity
%
barometer
mb
20260509081535 52 340 0.0 1.0 0.00 0.00 0.00 85 1022.1
20260509080036 53 18 0.0 4.0 0.00 0.00 0.00 84 1022.1
20260509074531 53 293 0.0 2.0 0.00 0.00 0.00 84 1022.1
20260509073047 53 306 0.0 2.0 0.00 0.00 0.00 84 1022.2
20260509071530 53 302 0.0 0.0 0.00 0.00 0.00 84 1022.4
20260509070027 53 302 0.0 0.0 0.00 0.00 0.00 83 1022.3
20260509064525 54 302 0.0 0.0 0.00 0.00 0.00 81 1022.2
20260509063028 54 302 0.0 3.0 0.00 0.00 0.00 81 1022.2
20260509061524 55 288 0.0 1.0 0.00 0.00 0.00 80 1022.1
20260509060034 55 286 0.0 0.0 0.00 0.00 0.00 79 1022.0
20260509054523 56 286 0.0 0.0 0.00 0.00 0.00 77 1022.0
20260509053030 56 303 0.0 3.0 0.00 0.00 0.00 76 1021.9
20260509051521 57 17 0.0 4.0 0.00 0.00 0.00 74 1021.9
20260509050021 58 348 0.0 4.0 0.00 0.00 0.00 72 1021.9
20260509044527 59 40 0.0 4.0 0.00 0.00 0.00 71 1021.7
20260509043024 59 9 0.0 1.0 0.00 0.00 0.00 70 1021.6
20260509041516 60 13 0.0 3.0 0.00 0.00 0.00 69 1021.3
20260509040016 60 54 0.0 1.0 0.00 0.00 0.00 68 1021.2
20260509034515 61 56 0.0 2.0 0.00 0.00 0.00 67 1021.1
20260509033015 62 56 0.0 0.0 0.00 0.00 0.00 65 1021.1
20260509031518 62 56 0.0 0.0 0.00 0.00 0.00 63 1020.9
20260509030016 63 329 0.0 1.0 0.00 0.00 0.00 62 1020.8
20260509024514 63 28 1.0 5.0 0.00 0.00 0.00 61 1020.7
20260509023013 64 41 0.0 3.0 0.00 0.00 0.00 59 1020.7
20260509021513 65 314 0.0 8.0 0.00 0.00 0.00 58 1020.7
20260509020012 66 19 0.0 7.0 0.00 0.00 0.00 57 1020.7
20260509014511 66 66 0.0 6.0 0.00 0.00 0.00 57 1020.7
20260509013011 65 11 0.0 6.0 0.00 0.00 0.00 57 1020.6
20260509011511 64 38 0.0 4.0 0.00 0.00 0.00 56 1020.7
20260509010017 66 48 0.0 8.0 0.00 0.00 0.00 54 1020.8
20260509004509 67 15 0.0 5.0 0.00 0.00 0.00 52 1020.8
20260509003018 68 274 1.0 6.0 0.00 0.00 0.00 51 1020.7
20260509001509 68 294 0.0 5.0 0.00 0.00 0.00 50 1020.7
20260509000008 67 265 0.0 1.0 0.00 0.00 0.00 50 1020.8
20260508234508 67 265 0.0 1.0 0.00 0.00 0.00 50 1020.9
20260508233007 66 327 0.0 1.0 0.00 0.00 0.00 52 1020.9
20260508231507 67 45 0.0 2.0 0.00 0.00 0.00 50 1020.9
20260508230007 68 319 0.0 5.0 0.00 0.00 0.00 48 1020.9
20260508224506 66 296 0.0 5.0 0.00 0.00 0.00 51 1020.9
20260508223002 66 15 0.0 6.0 0.00 0.00 0.00 52 1020.9
20260508221503 66 118 0.0 7.0 0.00 0.00 0.00 53 1021.0
20260508220001 65 59 0.0 8.0 0.00 0.00 0.00 53 1021.0
20260508214612 65 105 0.0 7.0 0.00 0.00 0.00 53 1021.0
20260508214502 65 112 1.0 7.0 0.00 0.00 0.00 53 1021.0
20260508213059 65 81 1.0 5.0 0.00 0.00 0.00 52 1021.0
20260508211558 64 360 1.0 5.0 0.00 0.00 0.00 53 1021.0
20260508210059 63 103 0.0 5.0 0.00 0.00 0.00 55 1021.1
20260508204555 63 32 0.0 6.0 0.00 0.00 0.00 56 1021.0
20260508203059 62 140 0.0 4.0 0.00 0.00 0.00 58 1021.1
20260508201553 62 75 0.0 4.0 0.00 0.00 0.00 56 1021.2
20260508200053 63 17 1.0 5.0 0.00 0.00 0.00 58 1021.2
20260508194554 61 14 0.0 5.0 0.00 0.00 0.00 61 1021.4
20260508193100 60 125 0.0 6.0 0.00 0.00 0.00 61 1021.3
20260508191545 60 88 0.0 6.0 0.00 0.00 0.00 61 1021.3
20260508190044 59 93 0.0 7.0 0.00 0.00 0.00 63 1021.3
20260508184546 59 293 0.0 5.0 0.00 0.00 0.00 63 1021.4
20260508183040 59 101 1.0 7.0 0.00 0.00 0.00 64 1021.5
20260508181549 58 58 0.0 3.0 0.00 0.00 0.00 63 1021.3
20260508180040 59 176 0.0 8.0 0.00 0.00 0.00 63 1021.2
20260508174537 58 187 0.0 5.0 0.00 0.00 0.00 64 1021.1
20260508173034 58 184 0.0 4.0 0.00 0.00 0.00 66 1021.1
20260508171540 57 233 2.0 6.0 0.00 0.00 0.00 65 1021.1
20260508170031 55 227 3.0 5.0 0.00 0.00 0.00 68 1021.0
20260508164527 55 227 0.0 5.0 0.00 0.00 0.00 71 1021.0
20260508163025 55 207 1.0 5.0 0.00 0.00 0.00 70 1021.0
20260508161522 53 207 0.0 1.0 0.00 0.00 0.00 75 1020.7
20260508160048 53 207 1.0 3.0 0.00 0.00 0.00 73 1020.7
20260508154519 52 207 0.0 4.0 0.00 0.00 0.00 76 1020.8
20260508153019 53 175 0.0 4.0 0.00 0.00 0.00 74 1020.4
20260508151515 52 150 0.0 2.0 0.00 0.00 0.00 79 1020.3
20260508150020 50 85 0.0 0.0 0.00 0.00 0.00 80 1020.2
20260508144513 49 85 0.0 0.0 0.00 0.00 0.00 83 1020.2
20260508143013 49 85 0.0 1.0 0.00 0.00 0.00 85 1020.2
20260508141516 48 300 0.0 1.0 0.00 0.00 0.00 89 1020.1
20260508140017 47 300 0.0 0.0 0.00 0.00 0.00 92 1020.0
20260508134519 47 300 0.0 0.0 0.00 0.00 0.00 93 1019.8
20260508133014 46 300 0.0 0.0 0.00 0.00 0.00 93 1019.5
20260508131505 46 300 0.0 0.0 0.00 0.00 0.00 93 1019.2
20260508130003 46 300 0.0 0.0 0.00 0.00 0.00 92 1018.9
20260508124600 47 300 0.0 0.0 0.00 0.00 0.00 92 1018.8
20260508123059 47 300 0.0 0.0 0.00 0.00 0.00 91 1018.5
20260508121608 47 300 0.0 0.0 0.00 0.00 0.00 91 1018.4
20260508120056 47 300 0.0 0.0 0.00 0.00 0.00 91 1018.1
20260508114556 47 300 0.0 0.0 0.00 0.00 0.00 91 1018.2
20260508113053 48 300 0.0 0.0 0.00 0.00 0.00 90 1017.9
20260508111551 48 300 0.0 0.0 0.00 0.00 0.00 90 1017.9
20260508110054 48 300 0.0 0.0 0.00 0.00 0.00 89 1017.5
20260508104546 48 300 0.0 0.0 0.00 0.00 0.00 89 1017.4
20260508103045 48 300 0.0 0.0 0.00 0.00 0.00 89 1017.3
20260508101544 48 300 0.0 0.0 0.00 0.00 0.00 89 1017.2
20260508100043 48 300 0.0 0.0 0.00 0.00 0.00 88 1017.1
20260508094549 48 300 0.0 0.0 0.00 0.00 0.00 87 1017.0
20260508093039 49 300 0.0 0.0 0.00 0.00 0.00 87 1016.9
20260508091538 49 300 0.0 0.0 0.00 0.00 0.00 86 1016.6
20260508090035 49 300 0.0 0.0 0.00 0.00 0.00 85 1016.6
20260508084533 50 300 0.0 0.0 0.00 0.00 0.00 84 1016.6
20260508083112 50 300 0.0 0.0 0.00 0.00 0.00 84 1016.5